Tracking 29892 objects as of 21-Nov-2024
HD Live streaming from Space Station
objects crossing your sky now

STARLINK-30826

Track STARLINK-30826 now!
10-day predictions
STARLINK-30826 is classified as:


NORAD ID: 58188
Int'l Code: 2023-167P
Perigee: 565.3 km
Apogee: 566.9 km
Inclination: 43.0 °
Period: 95.8 minutes
Semi major axis: 6937 km
RCS: Unknown
Launch date: October 30, 2023
Source: United States (US)
Launch site: AIR FORCE EASTERN TEST RANGE (AFETR)
Your satellite tracking list
Your tracking list is empty




NASA's NSSDC Master Catalog

Two Line Element Set (TLE):
1 58188U 23167P   24326.03682394  .00011607  00000-0  87224-3 0  9992
2 58188  43.0022 199.7969 0001157 282.0630  78.0083 15.02563272 59652
Source of the keplerian elements: AFSPC